Showing default

SKYKRAFT-1C, 55061

Orbit data source: Space-Track

SKYKRAFT-1C, 55061 is a payload satellite owned by SkyKraft (AU) in SSO that was launched on Tue, 03 Jan 2023 UTC via an FALCON 9 launch vehicle from the Air Force Eastern Test Range (AFETR). Payload-class satellites include a variety of spacecraft equipped with specific instruments for various scientific and technological missions. These include communications satellites like Starlink; space stations such as the ISS; scientific satellites like the Hubble; Earth observation satellites from companies like Planet Labs, Umbra, and HawkEye 360; GPS; miniature CubeSats for education and research; and military/defense satellites.

Loading next visibility...
Identifier
55061, 2023-001BE
Orbit
SSO
Country
Flag of AUAU / AUS
Related business
Manufacturer
SkyKraft
Mission
Operational Commercial Communications
Bus & Motor
SKYKRAFT, Unknown motor
Mass
~50 kg wet, ~50 kg dry
Launch date (UTC)
2023-01-03 (3 years ago)
Launch vehicle
FALCON 9
Launch site
Air Force Eastern Test Range (AFETR)
Object type
Payload
Rocket body
Debris
Shape & HBR
Box, 0.3 m
Radar Cross Section
0.065 m², Large (>1 m²)

Expand to show TLE details & history
Last TLE update: 12 hours ago

TLE from 12 hours ago
0 SKYKRAFT-1C
1 55061U 23001BE  26166.10465015  .00003109  00000-0  12731-3 0  9996
2 55061  97.3195 219.8064 0011418 146.7992 213.3965 15.24980844191168
Epoch: 2026-06-15T02:30Z
TLE epoch observation values (Epoch: 2026-06-15T02:30:41.772Z)
Latitude
-0.00003°
Longitude
-81.26347°
Altitude
500.495 km
Speed
7.611 km/s
True Right ascension
14h 39m 13s
True Declination
0° 00' 00"
Sunlit
Object was in full shadow at epoch
Visualization orbit readout
Latitude
Unknown
Longitude
Unknown
Altitude
Unknown
Speed
Unknown
Apparent Right ascension
Unknown
Apparent Declination
Unknown
Sunlit
N/A
Visualization observer readout
Local Sidereal Time
01:16:49
Azimuth
Unknown
Elevation
Unknown
Doppler factor
Unknown
Orbital elements
Apogee altitude
495.638 km
Perigee altitude
479.959 km
Semi-major axis
6,865.935 km
Eccentricity
0.00114
Inclination
97.3195°
RAAN
219.8064°
Arg. of periapsis
146.7992°
True anomaly
213.32457°
Mean anomaly
213.3965°
Eccentric anomaly
213.36053°
Mean motion
3.81499 °/min
Orbital period
94.36 mins
BSTAR
0.00012731
Loading maneuver chart data...
Computing Atmospheric mass density...

Documentation

Showing up to 5 results
|